www.pogodaiklimat.ru

Погода и климат >> Архив погоды >> Россия >> Астраханская область >> Астрахань


АРХИВ ПОГОДЫ в Астрахани

Время (UTC), дата Ветер
(напр.,м/с)
 
Видим.   Явления Облачность Т
(С)
Тd
(С)
f
(%)
Тe
(С)
Тes
(С)
Комфортность P
(гПа)
Po
(гПа)
Тmin
(С)
Tmax
(С)
R
(мм)
R24
(мм)
S
(см)
09 16.08 В 5
{11}
10 км ясно +31.4 +10.9 28 +31 +39 жарко 1013.0 1015.4
12 16.08 В 4-10
{13}
10 км ясно +31.1 +10.8 29 +31 +37 жарко 1011.8 1014.2
15 16.08 В 2
{10}
10 км ясно +28.0 +11.0 35 +29 +29 жарко 1011.4 1013.8 +31.9
18 16.08 В 1 10 км ясно +22.2 +15.5 66 +26 +26 душно 1012.0 1014.4
21 16.08 СВ 2 10 км ясно +20.3 +15.4 73 +24 +24 комфорт 1011.4 1013.9
00 17.08 В 1 10 км 3/0
[Ac trans]
+18.5 +15.7 84 +20 +20 тепло 1010.7 1013.2
03 17.08 В 1 10 км 3/0
[Ci sp]
+20.2 +16.0 77 +24 +25 комфорт 1011.3 1013.8 +17.4
06 17.08 ЮВ 5-10
{11}
10 км 4/0
[Ac trans Ci fib]
+29.4 +11.1 32 +30 +34 жарко 1011.7 1014.1
09 17.08 ЮВ 5-11
{11}
10 км 9/0
[Ac trans Ci fib]
+32.5 +8.6 23 +31 +35 жарко 1011.7 1014.1
12 17.08 В 3
{11}
10 км 9/8 1000 м
[Sc Ac trans]
+28.4 +14.4 42 +31 +32 душно 1012.2 1014.6
15 17.08 В 3 10 км 3/3 600 м
[Cb cap Ac trans]
+27.4 +12.4 39 +29 +29 жарко 1012.1 1014.5 +32.8
18 17.08 СВ 1 10 км ясно +21.7 +16.9 74 +26 +26 душно 1013.0 1015.5
21 17.08 СВ 1 10 км 4/0
[Ac trans Ci fib]
+19.4 +16.5 83 +22 +22 комфорт 1012.4 1014.8
00 18.08 В 2 10 км 8/0
[Ac trans]
+20.0 +15.6 76 +23 +23 комфорт 1011.5 1013.9
03 18.08 В 1 10 км 9/9 600 м
[Cb cap Ac trans]
+21.3 +17.1 77 +25 +25 комфорт 1011.4 1013.9 +19.0
06 18.08 В 4 10 км 9/6 600 м
[Cb calv Ac trans]
+29.8 +10.4 30 +30 +31 жарко 1012.1 1014.5
09 18.08 ЮВ 7-12
{11}
10 км 6/0
[Ac trans Ci fib]
+32.8 +9.3 24 +32 +35 жарко 1013.1 1015.5
12 18.08 В 5
{12}
10 км 3/0
[Ci fib]
+33.7 +8.1 21 +32 +36 жарко 1012.7 1015.0
15 18.08 В 4
{12}
10 км 6/0
[Ac trans Ci fib]
+30.0 +9.0 27 +29 +30 жарко 1013.0 1015.4 +33.8
18 18.08 СВ 2 10 км 3/0
[Ac trans]
+24.3 +15.4 58 +27 +27 жарко 1013.8 1016.2
21 18.08 СВ 2 10 км 4/0
[Ac trans Ci fib]
+21.8 +15.5 67 +25 +25 комфорт 1013.5 1015.9
00 19.08 В 1 10 км 3/0
[Ac trans Ci fib]
+19.2 +16.4 84 +22 +22 комфорт 1013.9 1016.4
03 19.08 В 2 10 км 3/0
[Ci fib]
+22.1 +15.8 67 +26 +27 душно 1015.0 1017.4 +18.9
06 19.08 В 5
{11}
10 км 3/0
[Ac trans]
+31.5 +11.3 29 +32 +36 жарко 1015.6 1018.0
09 19.08 ЮВ 5-10
{11}
10 км 3/0
[Ac trans Ci fib]
+34.7 +9.3 21 +33 +40 жарко 1016.0 1018.3
12 19.08 В 4
{11}
10 км 4/0
[Ac trans Ci fib]
+34.6 +9.7 22 +34 +38 очень
жарко
1016.4 1018.8
15 19.08 В 3
{10}
10 км 6/0
[Ac trans Ci sp]
+30.8 +10.4 28 +31 +31 жарко 1017.1 1019.5 +34.8
18 19.08 В 1 10 км 6/0
[Ac trans Ci sp]
+23.3 +16.4 65 +28 +28 душно 1018.6 1021.0
21 19.08 СВ 1 10 км 3/0
[Ci fib]
+21.2 +16.7 75 +25 +25 комфорт 1018.2 1020.7
00 20.08 СВ 1 10 км ясно +20.6 +15.4 72 +25 +25 комфорт 1017.5 1020.0
03 20.08 В 1 10 км ясно +20.7 +16.0 74 +25 +26 комфорт 1017.9 1020.3 +18.6
06 20.08 ЮВ 3 10 км ясно +31.4 +14.0 35 +33 +41 жарко 1019.0 1021.4
09 20.08 ЮВ 5-10
{10}
10 км ясно +36.5 +5.5 15 +34 +42 очень
жарко
1018.6 1021.0
12 20.08 ЮВ 4
{10}
10 км ясно +35.7 +6.0 16 +33 +39 жарко 1018.1 1020.4
15 20.08 В 2 10 км ясно +32.4 +5.9 19 +30 +31 жарко 1018.1 1020.5 +37.0
18 20.08 В 1 10 км 3/0
[Ac trans]
+24.3 +12.2 47 +26 +26 жарко 1018.8 1021.2
21 20.08 штиль 0 10 км 3/0
[Ac trans]
+20.8 +15.0 69 +23 +23 комфорт 1017.8 1020.3
00 21.08 СВ 1 10 км 1/0
[Ac trans]
+20.3 +14.8 71 +24 +24 комфорт 1016.7 1019.2
03 21.08 СВ 2 10 км 8/4 600 м
[Cb cap Ac trans Ci fib]
+22.9 +11.8 50 +25 +26 комфорт 1016.9 1019.4 +19.0
06 21.08 В 2 10 км 3/0
[Ci fib]
+31.4 +11.3 29 +32 +40 жарко 1017.0 1019.4
09 21.08 В 2 10 км 4/0
[Ci fib]
+37.2 +7.4 16 +35 +49 очень
жарко
1015.7 1018.0
12 21.08 ЮВ 2 10 км 3/0
[Ci fib]
+38.0 +6.9 15 +36 +43 очень
жарко
1014.4 1016.7
15 21.08 ЮВ 3 10 км 3/0
[Ci fib]
+33.8 +14.6 32 +35 +36 очень
жарко
1014.1 1016.5 +38.4
18 21.08 СВ 1 10 км ясно +24.4 +18.8 71 +29 +29 душно 1014.3 1016.7
21 21.08 В 1 10 км 3/0
[Ci fib]
+21.2 +18.8 86 +26 +26 душно 1013.9 1016.4
00 22.08 штиль 0 4000 м дымка 3/0
[Ci fib]
+19.2 +17.5 90 +21 +21 комфорт 1013.5 1016.0
03 22.08 штиль 0 4000 м дымка ясно +19.6 +17.8 89 +22 +23 комфорт 1013.6 1016.1 +17.6
06 22.08 СВ 2 10 км ясно +33.3 +9.1 23 +32 +41 жарко 1013.7 1016.1
09 22.08 СВ 3 10 км ясно +36.9 +4.9 14 +34 +46 очень
жарко
1013.2 1015.6
12 22.08 В 3 10 км ясно +37.5 +5.2 14 +35 +41 очень
жарко
1012.9 1015.2
15 22.08 ЮВ 3 10 км ясно +33.4 +9.2 23 +32 +33 жарко 1012.8 1015.2 +38.2
18 22.08 В 1 10 км ясно +25.3 +11.9 43 +27 +27 жарко 1013.6 1016.1
21 22.08 СВ 1 10 км ясно +22.6 +17.3 72 +27 +27 душно 1013.8 1016.2
00 23.08 СВ 1 10 км ясно +21.7 +11.8 53 +24 +24 комфорт 1013.6 1016.1
03 23.08 СВ 2 10 км 1/0
[Ci fib]
+23.4 +13.9 55 +27 +28 душно 1014.2 1016.7 +20.6
06 23.08 В 3 10 км 1/0
[Ci fib]
+33.6 +13.3 29 +34 +42 очень
жарко
1014.7 1017.1

 

Местоположение метеостанции Астрахань (Астраханская область, Россия): широта 46.28 долгота 47.98 высота над уровнем моря -21 м.

В архиве по умолчанию представлена погода в Астрахани за последнюю неделю. Архивные данные за месяц целиком и за предыдущие месяцы, начиная с января 2011 года, Вы можете получить, выбрав интересующий диапазон дат из раскрывающегося списка и нажав кнопку "Ввод!".


*Определитесь, кто Вы:
робот инопланетянин человек

Внимание! Время в таблицах - всемирное. Для получения местного времени необходимо прибавить поправку, которая равна 4 ч.

Смотрите также архив погоды в соседних городах и на ближайших метеорологических станциях:

Погода в Зеленге (Астраханская область, Россия) (50 км)
Погода в Досанге (Астраханская область, Россия) (71 км)
Погода в Лимане (Астраханская область, Россия) (79 км)
Погода в Ганюшкино (Атырауская область, Казахстан) (105 км)
Погода в Лагани (Калмыкия, Россия) (109 км)
Погода в Харабали (Астраханская область, Россия) (136 км)
Погода в Утте (Калмыкия, Россия) (151 км)
Погода в Юсте (Калмыкия, Россия) (158 км)
Погода в Исатай (Атырауская область, Казахстан) (170 км)
Погода в Артезиане (Калмыкия, Россия) (177 км)

Пояснения к столбцам:

Ветер - указаны скорость ветра в м/с - средняя за 10 мин, порывы в срок и между сроками (в фигурных скобках) и направление, откуда дует ветер: С - северный, СВ - северо-восточный, В - восточный, ЮВ - юго-восточный, Ю - южный, ЮЗ - юго-западный, З - западный, СЗ - северо-западный.
Видимость - горизонтальная дальность видимости в метрах или километрах. При видимости от 1 до 10 км при отсутствии осадков обычно наблюдается дымка, при ухудшении видимости до 1 км и менее - туман. В сухую погоду видимость может ухудшаться дымом, пылью или мглою.
Явления - указаны атмосферные явления, наблюдавшиеся в срок или в последний час перед сроком; фигурными скобками обозначены явления, наблюдавшиеся между сроками (за 1-3 часа до срока); квадратными скобками обозначены град или гололедные отложения с указанием их диаметра в мм.
Облачность - указаны через наклонную черту общая и нижняя облачность в баллах и высота нижней границы облаков в метрах; квадратными скобками обозначены формы облаков: Ci - перистые, Cs - перисто-слоистые, Cc - перисто-кучевые, Ac - высококучевые, As - высокослоистые, Sc - слоисто-кучевые, Ns - слоисто-дождевые, Cu - кучевые, Cb - кучево-дождевые. Подробнее классификацию облаков см. в Атласе облаков (PDF).
T - Температура воздуха - температура, измеренная на высоте 2 м над землей.
Td - Температура точки росы - температура, при понижении до которой содержащийся в воздухе водяной пар достигнет насыщения.
f - Относительная влажность воздуха - влажноcть воздуха, измеренная на высоте 2 м над землей.
Te - Эффективная температура - температура, которую ощущает одетый по сезону человек в тени. Характеристика душности погоды. При расчете учитывается влияние влажности воздуха и скорости ветра на теплоощущения человека.
Tes - Эффективная температура на солнце - температура, которую ощущает человек, с поправкой на солнечный нагрев. Характеристика знойности погоды. Зависит от высоты солнца над горизонтом, облачности и скорости ветра. Ночью, в пасмурную погоду, а также при ветре 12 м/с и более поправка равна нулю.
P - Атмосферное давление - приведенное к уровню моря атмосферное давление.
Po - Атмосферное давление - измеренное на уровне метеостанции атмосферное давление.
Tmin - Минимальная температура - минимум температуры воздуха на высоте 2 м над землей.
Tmax - Максимальная температура - максимум температуры воздуха на высоте 2 м над землей.
R - Количество осадков - Количество выпавших осадков за период времени, мм. При наведении курсора мыши на число - период времени, за который выпало указанное количество осадков.
R24 - Количество осадков - Количество выпавших осадков за 24 часа, мм.
S - Снежный покров - Высота снежного покрова, см. При наведении курсора мыши на число - состояние снежного покрова и степень покрытия местности в баллах.